Location: G�ndlingen
(48.0142°N, 7.6396°E)
Time: 08:31:13
(UTC+00:00)

Helios 1A - Pass Details

Date: 05 July 2020
Orbit: 587 x 600 km, 98.2° (Epoch: 01 August)

Event Time Altitude Azimuth Distance (km) Brightness Sun altitude
Exits shadow 23:24:56 48° 169° (S) 769 3.1 -19.3°
Maximum altitude 23:26:03 87° 251° (WSW) 596 2.9 -19.3°
Drops below altitude 10° 23:30:14 10° 345° (NNW) 1,925 6.7 -19.3°
Sets 23:32:24 0° 346° (NNW) 2,832 7.9 -19.3°
